Westfield, MA

5:59 PM EST on February 13, 2016 (GMT -0500)
Barnes Municipal

Weather History for KBAF - November, 2013

Change the Weather History Date:

Saturday, November 23, 2013

  Actual Average Record
Temperature  
Mean Temperature 39 °F -  
Max Temperature 48 °F 45 °F - (-1)
Min Temperature 26 °F 27 °F - (-1)
Degree Days  
Heating Degree Days 26    
Moisture  
Dew Point 21 °F    
Average Humidity 53    
Maximum Humidity 75    
Minimum Humidity 38    
Precipitation  
Precipitation 0.00 in - - ()
Sea Level Pressure  
Sea Level Pressure 29.91 in    
Wind  
Wind Speed 14 mph (WNW)    
Max Wind Speed 22 mph    
Max Gust Speed 43 mph    
Visibility 9 miles    
Events Snow    
Averages and records for this station are not official NWS values.
T = Trace of Precipitation, MM = Missing Value Source: NWS Daily Summary

Daily Weather History Graph

Daily Weather History Graph

Search for Another Location

Airport or City:

Trip Planner

Search our weather history database for the weather conditions in past years. The results will help you decide how hot, cold, wet, or windy it might be!

Date:

Astronomy

Nov. 23, 2013 Rise Set
Actual Time 6:51 AM EST 4:23 PM EST
Civil Twilight 6:20 AM EST 4:54 PM EST
Nautical Twilight 5:45 AM EST 5:28 PM EST
Astronomical Twilight 5:12 AM EST 6:01 PM EST
Moon 9:51 PM EST (11/23) 11:04 AM EST (11/23)
Length of Visible Light 10h 33m
Length of Day
9h 32m
Waning Gibbous, 70% of the Moon is Illuminated
Nov 23
Waning Gibbous
Nov 25
Last Quarter
Dec 2
New
Dec 9
First Quarter
Dec 17
Full

Hourly Weather History & Observations

Time (EST) Temp. Windchill Dew Point Humidity Pressure Visibility Wind Dir Wind Speed Gust Speed Precip Events Conditions
12:53 AM 48.9 °F - 39.0 °F 69% 29.86 in 10.0 mi NW 11.5 mph 18.4 mph 0.00 in   Overcast
1:53 AM 46.0 °F 38.0 °F 32.0 °F 58% 29.88 in 10.0 mi WNW 21.9 mph 28.8 mph N/A   Clear
2:53 AM 45.0 °F 41.2 °F 30.0 °F 56% 29.90 in 10.0 mi Variable 6.9 mph 23.0 mph N/A   Partly Cloudy
3:53 AM 43.0 °F - 28.9 °F 58% 29.92 in 10.0 mi North - - N/A   Mostly Cloudy
4:53 AM 39.9 °F 31.4 °F 27.0 °F 60% 29.94 in 10.0 mi North 16.1 mph 27.6 mph N/A   Overcast
5:53 AM 39.0 °F 32.8 °F 26.1 °F 60% 29.96 in 10.0 mi NW 9.2 mph - N/A   Overcast
6:53 AM 37.0 °F 27.4 °F 24.1 °F 59% 29.98 in 10.0 mi NW 17.3 mph - N/A   Clear
7:53 AM 37.9 °F 30.5 °F 23.0 °F 55% 30.00 in 10.0 mi West 11.5 mph 21.9 mph N/A   Partly Cloudy
8:53 AM 37.9 °F 28.5 °F 23.0 °F 55% 30.01 in 10.0 mi WNW 17.3 mph 24.2 mph N/A   Clear
9:53 AM 39.0 °F 32.8 °F 19.9 °F 46% 30.00 in 10.0 mi WNW 9.2 mph 19.6 mph N/A   Clear
10:53 AM 41.0 °F 33.9 °F 19.9 °F 43% 29.97 in 10.0 mi NW 12.7 mph 23.0 mph N/A   Clear
11:53 AM 41.0 °F 33.5 °F 19.0 °F 41% 29.94 in 10.0 mi NNW 13.8 mph - N/A   Clear
12:53 PM 42.1 °F 34.2 °F 19.0 °F 40% 29.91 in 10.0 mi NW 16.1 mph - N/A   Clear
1:53 PM 41.0 °F 34.3 °F 19.9 °F 43% 29.90 in 10.0 mi NNW 11.5 mph 20.7 mph N/A   Partly Cloudy
2:53 PM 41.0 °F 33.9 °F 19.0 °F 41% 29.88 in 10.0 mi West 12.7 mph - N/A   Clear
3:53 PM 39.0 °F 32.8 °F 15.1 °F 38% 29.87 in 10.0 mi West 9.2 mph - N/A   Clear
4:53 PM 37.0 °F 33.3 °F 15.1 °F 41% 29.86 in 10.0 mi WNW 4.6 mph - N/A   Mostly Cloudy
5:53 PM 37.0 °F 28.5 °F 19.0 °F 48% 29.87 in 10.0 mi WNW 13.8 mph - N/A   Overcast
6:53 PM 33.1 °F 21.2 °F 26.1 °F 75% 29.89 in 1.8 mi NW 20.7 mph 33.4 mph 0.00 in Snow Light Snow
7:04 PM 32.0 °F 24.8 °F 25.0 °F 75% 29.86 in 7.0 mi West 8.1 mph - 0.00 in Snow Light Snow
7:53 PM 33.1 °F 22.2 °F 17.1 °F 52% 29.88 in 10.0 mi NW 17.3 mph 24.2 mph 0.00 in   Scattered Clouds
8:37 PM 32.0 °F 20.8 °F 19.0 °F 59% 29.87 in 4.0 mi WNW 17.3 mph 42.6 mph 0.00 in Snow Light Snow
8:46 PM 32.0 °F 19.5 °F 17.1 °F 54% 29.87 in 9.0 mi WNW 21.9 mph 32.2 mph 0.00 in   Mostly Cloudy
8:53 PM 32.0 °F 20.1 °F 15.1 °F 50% 29.89 in 10.0 mi WNW 19.6 mph 31.1 mph 0.00 in   Scattered Clouds
9:53 PM 30.9 °F 18.7 °F 12.0 °F 46% 29.91 in 10.0 mi WNW 19.6 mph 31.1 mph N/A   Scattered Clouds
10:53 PM 30.0 °F 16.9 °F 10.0 °F 43% 29.90 in 10.0 mi WNW 21.9 mph 31.1 mph 0.00 in   Overcast
11:53 PM 26.1 °F 14.5 °F 18.0 °F 71% 29.91 in 3.0 mi WNW 13.8 mph 24.2 mph 0.00 in Snow Light Snow